PA5MB-15 Weather Reports


time (UTC)temp
C
wind
direction
speed
KPH
gust
KPH
rain 1hr
cm
rain 24hr
cm
rain mn
cm
humidity
%
barometer
mb
20260506062032 10 337 3.2 8.0 0.00 0.00 0.00 93 1009.6
20260506061532 10 330 1.6 6.4 0.00 0.00 0.00 93 1009.5
20260506061025 10 2 1.6 6.4 0.00 0.00 0.00 94 1009.5
20260506060529 10 338 1.6 6.4 0.00 0.00 0.00 94 1009.5
20260506051033 9 348 3.2 8.0 0.00 0.00 0.00 95 1009.6
20260506050532 9 360 1.6 8.0 0.00 0.00 0.00 96 1009.5
20260506045037 9 354 3.2 8.0 0.00 0.00 0.00 96 1009.5
20260506044544 9 356 3.2 8.0 0.00 0.00 0.00 96 1009.5
20260506044035 9 360 4.8 8.0 0.00 0.00 0.00 96 1009.5
20260506043525 9 352 3.2 8.0 0.00 0.00 0.00 96 1009.5
20260506043032 8 336 4.8 8.0 0.00 0.00 0.00 96 1009.5
20260506042557 8 352 3.2 8.0 0.00 0.00 0.00 96 1009.5
20260506042032 8 360 4.8 9.7 0.00 0.00 0.00 96 1009.5
20260506041532 8 0 3.2 8.0 0.00 0.00 0.00 96 1009.5
20260506041021 8 358 4.8 9.7 0.00 0.00 0.00 97 1009.5
20260506040530 8 352 3.2 8.0 0.00 0.00 0.00 96 1009.5
20260506040032 9 2 3.2 8.0 0.00 0.00 0.00 96 1009.5
20260506035531 9 349 3.2 8.0 0.00 0.00 0.00 96 1009.5
20260506035032 9 5 3.2 8.0 0.00 0.00 0.00 96 1009.6
20260506034529 9 8 1.6 4.8 0.00 0.00 0.00 96 1009.7
20260506034044 9 4 3.2 6.4 0.00 0.00 0.00 95 1009.7
20260506033534 9 10 4.8 11.3 0.00 0.00 0.00 95 1009.7
20260506033023 9 356 3.2 6.4 0.00 0.00 0.00 95 1009.8
20260506032542 9 345 1.6 4.8 0.00 0.00 0.00 94 1009.7
20260506032024 9 15 3.2 8.0 0.00 0.00 0.00 94 1009.8
20260506031532 9 357 3.2 8.0 0.00 0.00 0.00 92 1009.8
20260506031032 9 11 3.2 6.4 0.00 0.00 0.00 91 1009.7
20260506030544 9 11 1.6 6.4 0.00 0.00 0.00 90 1009.7
20260506030025 10 344 1.6 6.4 0.00 0.00 0.00 90 1009.8
20260506025530 10 337 3.2 6.4 0.00 0.00 0.00 89 1009.8
20260506025044 10 0 1.6 6.4 0.00 0.00 0.00 89 1009.8
20260506024532 10 335 1.6 4.8 0.00 0.00 0.00 89 1009.8
20260506024032 10 335 1.6 6.4 0.00 0.00 0.00 88 1009.9
20260506023532 10 348 3.2 4.8 0.00 0.00 0.00 88 1009.9
20260506023029 10 328 3.2 8.0 0.00 0.00 0.00 88 1009.9
20260506022556 10 351 3.2 8.0 0.00 0.00 0.00 88 1010.0
20260506022033 10 341 1.6 4.8 0.00 0.00 0.00 88 1010.0
20260506021532 10 342 0.0 6.4 0.00 0.00 0.00 88 1009.9
20260506021026 10 351 3.2 6.4 0.00 0.00 0.00 88 1009.9
20260506020532 10 338 1.6 6.4 0.00 0.00 0.00 88 1009.9
20260506020036 10 7 1.6 6.4 0.00 0.00 0.00 88 1009.9
20260506015532 10 360 1.6 4.8 0.00 0.00 0.00 87 1010.0
20260506015032 10 355 3.2 6.4 0.00 0.00 0.00 87 1010.0
20260506014522 10 356 4.8 9.7 0.00 0.00 0.00 87 1010.0
20260506014032 10 353 4.8 8.0 0.00 0.00 0.00 87 1010.0
20260506013520 10 2 4.8 9.7 0.00 0.00 0.00 87 1010.0
20260506013032 10 357 4.8 8.0 0.00 0.00 0.00 87 1010.0
20260506012532 10 10 3.2 8.0 0.00 0.00 0.00 86 1010.0
20260506012032 10 353 4.8 8.0 0.00 0.00 0.00 86 1010.0
20260506011532 10 358 3.2 9.7 0.00 0.00 0.00 86 1010.0
20260506011030 10 347 4.8 6.4 0.00 0.00 0.00 86 1010.0
20260506010531 10 351 3.2 6.4 0.00 0.00 0.00 86 1010.1
20260506010030 10 6 3.2 8.0 0.00 0.00 0.00 86 1010.1
20260506005522 10 358 4.8 8.0 0.00 0.00 0.00 85 1010.2
20260506005032 10 348 4.8 11.3 0.00 0.00 0.00 85 1010.2
20260506004532 10 14 4.8 9.7 0.00 0.00 0.00 85 1010.3
20260506004032 10 356 4.8 8.0 0.00 0.00 0.00 84 1010.3
20260506003532 10 347 4.8 8.0 0.00 0.00 0.00 84 1010.4
20260506003044 10 334 3.2 6.4 0.00 0.00 0.00 84 1010.5
20260506002544 10 350 4.8 8.0 0.00 0.00 0.00 84 1010.5
20260506002032 10 350 3.2 8.0 0.00 0.00 0.00 83 1010.5
20260506001524 10 360 4.8 8.0 0.00 0.00 0.00 83 1010.6
20260506001022 10 346 4.8 9.7 0.00 0.00 0.00 83 1010.6
20260506000530 10 357 3.2 9.7 0.00 0.00 0.00 83 1010.6
20260506000032 10 357 4.8 9.7 0.00 0.00 0.00 82 1010.6
20260505235532 10 12 3.2 8.0 0.00 0.00 0.00 82 1010.7
20260505235025 10 351 4.8 8.0 0.00 0.00 0.00 82 1010.7
20260505234530 10 347 3.2 8.0 0.00 0.00 0.00 82 1010.7
20260505234032 10 2 4.8 8.0 0.00 0.00 0.00 81 1010.7
20260505233525 10 12 4.8 9.7 0.00 0.03 0.00 81 1010.7
20260505233033 10 359 3.2 6.4 0.00 0.03 0.00 81 1010.7
20260505232532 10 353 3.2 9.7 0.00 0.03 0.00 81 1010.7
20260505232044 10 358 4.8 8.0 0.00 0.03 0.00 81 1010.8
20260505231532 10 358 4.8 11.3 0.00 0.08 0.00 81 1010.8
20260505231032 10 337 3.2 8.0 0.00 0.13 0.00 82 1010.9
20260505230532 10 15 3.2 6.4 0.00 0.18 0.00 82 1010.9
20260505230032 10 360 4.8 8.0 0.00 0.41 0.00 82 1010.9
20260505225532 10 355 4.8 9.7 0.00 0.51 0.00 82 1010.9
20260505225030 10 353 4.8 8.0 0.00 0.51 0.00 82 1010.9
20260505224532 10 356 3.2 6.4 0.00 0.53 0.00 83 1010.9
20260505224032 10 347 4.8 8.0 0.00 0.58 0.00 83 1011.0
20260505223524 10 356 3.2 8.0 0.00 0.64 0.00 83 1011.0
20260505223030 10 345 3.2 6.4 0.00 0.66 0.00 83 1011.1
20260505222532 10 11 4.8 9.7 0.00 0.69 0.00 83 1011.1
20260505222021 10 12 3.2 6.4 0.00 0.71 0.00 82 1011.1
20260505221532 10 350 4.8 9.7 0.00 0.79 0.00 82 1011.1
20260505221040 10 354 4.8 8.0 0.00 0.89 0.00 82 1011.1
20260505220544 10 350 4.8 8.0 0.00 0.99 0.00 82 1011.2
20260505220034 10 348 4.8 9.7 0.00 1.02 0.00 82 1011.2
20260505215532 10 2 3.2 8.0 0.00 1.02 1.02 82 1011.2
20260505215032 10 0 4.8 9.7 0.00 1.04 1.02 82 1011.2
20260505214530 10 1 3.2 8.0 0.00 1.09 1.02 82 1011.2
20260505214023 10 342 6.4 9.7 0.00 1.09 1.02 81 1011.2
20260505213532 10 343 4.8 8.0 0.00 1.09 1.02 82 1011.2
20260505213032 10 351 4.8 16.1 0.00 1.09 1.02 82 1011.2
20260505212530 10 4 4.8 8.0 0.00 1.09 1.02 82 1011.3
20260505212032 10 11 6.4 9.7 0.00 1.09 1.02 82 1011.3
20260505211532 10 358 4.8 8.0 0.00 1.09 1.02 82 1011.3
20260505211044 10 12 4.8 9.7 0.00 1.09 1.02 82 1011.3
20260505210532 10 345 4.8 9.7 0.00 1.09 1.02 82 1011.3
20260505210024 11 357 4.8 9.7 0.00 1.09 1.02 82 1011.3
20260505205532 11 0 6.4 9.7 0.00 1.09 1.02 82 1011.3
20260505205030 11 347 4.8 8.0 0.00 1.09 1.02 82 1011.3
20260505204542 11 357 6.4 9.7 0.00 1.09 1.02 82 1011.4
20260505204024 11 1 6.4 11.3 0.00 1.09 1.02 82 1011.4
20260505203530 11 11 4.8 9.7 0.00 1.09 1.02 82 1011.4
20260505203032 11 3 4.8 8.0 0.00 1.09 1.02 82 1011.4
20260505202531 11 13 6.4 9.7 0.00 1.09 1.02 82 1011.3
20260505202030 11 8 4.8 8.0 0.00 1.09 1.02 82 1011.3
20260505201533 11 4 4.8 9.7 0.00 1.09 1.02 82 1011.4
20260505201044 11 337 6.4 9.7 0.00 1.09 1.02 82 1011.3
20260505200532 11 11 4.8 9.7 0.00 1.09 1.02 81 1011.2
20260505200032 11 360 4.8 9.7 0.00 1.09 1.02 81 1011.2
20260505195531 11 349 6.4 11.3 0.00 1.09 1.02 81 1011.2
20260505195044 11 344 4.8 9.7 0.00 1.09 1.02 82 1011.2
20260505194532 11 5 6.4 14.5 0.00 1.09 1.02 81 1011.1
20260505194035 11 359 4.8 12.9 0.00 1.09 1.02 81 1011.1
20260505193531 11 10 3.2 8.0 0.00 1.09 1.02 81 1011.1
20260505193044 11 350 6.4 8.0 0.00 1.09 1.02 80 1011.1
20260505192532 11 8 4.8 9.7 0.00 1.09 1.02 80 1010.9
20260505192031 11 8 6.4 9.7 0.00 1.09 1.02 80 1010.9
20260505191533 11 12 6.4 16.1 0.00 1.09 1.02 80 1010.9
20260505191033 12 357 6.4 14.5 0.00 1.09 1.02 79 1010.9
20260505190524 12 351 6.4 11.3 0.00 1.09 1.02 79 1010.8
20260505190032 12 0 4.8 12.9 0.00 1.09 1.02 78 1010.8
20260505185531 12 0 4.8 12.9 0.00 1.09 1.02 78 1010.7
20260505185031 12 350 4.8 9.7 0.00 1.09 1.02 77 1010.7
20260505184527 12 347 6.4 11.3 0.00 1.09 1.02 77 1010.6
20260505184031 12 359 6.4 16.1 0.00 1.09 1.02 77 1010.6
20260505183533 12 341 8.0 14.5 0.00 1.09 1.02 77 1010.6
20260505183044 12 357 8.0 14.5 0.00 1.09 1.02 77 1010.6
20260505182523 12 1 6.4 9.7 0.00 1.09 1.02 77 1010.5
20260505182032 12 14 6.4 14.5 0.00 1.09 1.02 77 1010.5
20260505181532 12 6 8.0 14.5 0.00 1.09 1.02 77 1010.5
20260505181031 12 348 6.4 9.7 0.00 1.09 1.02 77 1010.5
20260505180530 12 347 6.4 11.3 0.00 1.09 1.02 76 1010.5
20260505180031 13 1 6.4 17.7 0.00 1.09 1.02 76 1010.5
20260505175535 13 353 6.4 16.1 0.00 1.09 1.02 76 1010.4
20260505175021 13 355 8.0 16.1 0.00 1.09 1.02 77 1010.4
20260505174531 13 354 4.8 9.7 0.00 1.09 1.02 77 1010.4
20260505174032 13 2 6.4 14.5 0.00 1.09 1.02 77 1010.3
20260505173532 13 352 6.4 12.9 0.00 1.09 1.02 77 1010.4
20260505173024 13 345 6.4 9.7 0.00 1.09 1.02 76 1010.4
20260505172539 13 356 6.4 12.9 0.00 1.09 1.02 76 1010.4
20260505172031 13 15 6.4 12.9 0.00 1.09 1.02 76 1010.4
20260505171531 13 350 6.4 14.5 0.00 1.09 1.02 77 1010.4
20260505171055 13 359 6.4 14.5 0.00 1.09 1.02 77 1010.4
20260505170526 13 7 6.4 11.3 0.00 1.09 1.02 76 1010.5
20260505170033 14 343 4.8 8.0 0.00 1.09 1.02 76 1010.5
20260505165531 14 0 4.8 9.7 0.00 1.09 1.02 77 1010.5
20260505165031 14 357 4.8 8.0 0.00 1.09 1.02 77 1010.6
20260505164530 13 359 4.8 8.0 0.00 1.09 1.02 77 1010.6
20260505164031 13 354 6.4 9.7 0.00 1.09 1.02 78 1010.6
20260505163531 13 10 4.8 9.7 0.00 1.09 1.02 79 1010.6
20260505163020 14 350 6.4 14.5 0.00 1.09 1.02 79 1010.6
20260505162530 14 339 4.8 11.3 0.00 1.09 1.02 78 1010.6
20260505162031 14 357 4.8 11.3 0.00 1.09 1.02 78 1010.6
20260505161523 14 313 3.2 8.0 0.00 1.09 1.02 78 1010.7
20260505161036 14 341 4.8 8.0 0.00 1.09 1.02 79 1010.7
20260505160543 14 359 4.8 9.7 0.00 1.09 1.02 79 1010.8
20260505153031 15 342 4.8 9.7 0.00 1.09 1.02 76 1010.8
20260505152531 15 348 4.8 9.7 0.00 1.09 1.02 77 1010.9
20260505152031 14 349 4.8 8.0 0.00 1.09 1.02 77 1011.0
20260505151531 14 353 3.2 8.0 0.00 1.09 1.02 79 1011.0
20260505151023 14 359 4.8 9.7 0.00 1.09 1.02 79 1011.1
20260505150531 13 8 4.8 8.0 0.00 1.09 1.02 79 1011.1
20260505140543 12 356 6.4 9.7 0.00 1.09 1.02 85 1011.5
20260505125031 12 3 3.2 8.0 0.00 1.09 1.02 87 1011.9
20260505124526 12 356 3.2 8.0 0.00 1.09 1.02 87 1011.9
20260505124031 12 348 4.8 8.0 0.00 1.09 1.02 87 1011.9
20260505123524 12 350 4.8 8.0 0.00 1.09 1.02 87 1011.9
20260505123031 12 338 4.8 9.7 0.00 1.09 1.02 87 1012.0
20260505122531 12 338 3.2 8.0 0.00 1.09 1.02 86 1012.0
20260505122030 12 343 4.8 9.7 0.00 1.09 1.02 86 1012.0
20260505121531 12 347 4.8 8.0 0.00 1.09 1.02 87 1012.0
20260505121043 12 9 3.2 6.4 0.00 1.09 1.02 87 1012.0
20260505120530 12 254 1.6 6.4 0.00 1.09 1.02 87 1012.1
20260505120031 12 350 4.8 9.7 0.00 1.09 1.02 87 1012.1
20260505115524 12 354 3.2 6.4 0.00 1.09 1.02 87 1012.1
20260505115031 12 336 3.2 8.0 0.00 1.09 1.02 87 1012.1
20260505114531 12 345 4.8 8.0 0.00 1.09 1.02 87 1012.1
20260505114043 12 3 4.8 9.7 0.00 1.09 1.02 87 1012.1
20260505113531 12 354 4.8 8.0 0.00 1.09 1.02 87 1012.1
20260505113042 11 354 4.8 8.0 0.00 1.09 1.02 88 1012.2
20260505112531 11 338 4.8 8.0 0.00 1.09 1.02 88 1012.2
20260505112031 11 348 4.8 8.0 0.00 1.09 1.02 88 1012.2
20260505111532 11 7 3.2 8.0 0.00 1.09 1.02 89 1012.3
20260505111032 11 1 6.4 11.3 0.00 1.09 1.02 88 1012.3
20260505110543 11 343 4.8 8.0 0.00 1.09 1.02 88 1012.3
20260505102031 11 358 6.4 8.0 0.00 1.09 1.02 89 1012.4
20260505101530 11 351 4.8 9.7 0.00 1.09 1.02 89 1012.5
20260505101031 11 3 4.8 9.7 0.00 1.09 1.02 90 1012.5
20260505100530 11 339 4.8 9.7 0.00 1.09 1.02 90 1012.6
20260505100031 11 345 4.8 8.0 0.00 1.09 1.02 91 1012.5
20260505095523 11 0 4.8 11.3 0.00 1.09 1.02 91 1012.5
20260505095031 11 355 4.8 9.7 0.00 1.09 1.02 91 1012.5
20260505094531 11 332 4.8 9.7 0.00 1.09 1.02 91 1012.5
20260505094031 11 8 6.4 8.0 0.00 1.09 1.02 91 1012.6
20260505093524 11 7 3.2 9.7 0.00 1.09 1.02 91 1012.6
20260505093031 11 5 6.4 9.7 0.00 1.09 1.02 91 1012.6
20260505092532 11 4 6.4 9.7 0.00 1.09 1.02 91 1012.7
20260505092023 11 21 4.8 9.7 0.00 1.09 1.02 91 1012.6
20260505091531 11 349 4.8 9.7 0.00 1.09 1.02 92 1012.7
20260505091033 10 354 6.4 12.9 0.00 1.09 1.02 93 1012.7
20260505090543 10 9 3.2 8.0 0.00 1.09 1.02 93 1012.7
20260505090031 10 3 4.8 12.9 0.00 1.09 1.02 94 1012.7
20260505085532 10 351 4.8 8.0 0.00 1.09 1.02 94 1012.7
20260505085046 10 6 4.8 8.0 0.00 1.09 1.02 94 1012.7
20260505084543 10 27 1.6 6.4 0.00 1.09 1.02 94 1012.8
20260505084024 10 359 3.2 8.0 0.00 1.09 1.02 94 1012.8
20260505083535 10 4 3.2 8.0 0.00 1.09 1.02 94 1012.8
20260505083031 10 360 4.8 8.0 0.00 1.09 1.02 94 1012.8
20260505082531 10 345 3.2 8.0 0.00 1.09 1.02 94 1012.8
20260505082023 10 345 3.2 8.0 0.00 1.09 1.02 95 1012.8
20260505081531 10 355 3.2 8.0 0.00 1.09 1.02 95 1012.8
20260505081031 10 7 4.8 8.0 0.00 1.09 1.02 95 1012.8
20260505080531 10 14 3.2 8.0 0.00 1.09 1.02 95 1012.8
20260505080026 10 11 3.2 8.0 0.00 1.09 1.02 95 1012.8
20260505075534 10 5 3.2 6.4 0.00 1.09 1.02 95 1012.7
20260505075031 10 20 4.8 8.0 0.00 1.09 1.02 96 1012.7
20260505074530 10 349 3.2 11.3 0.00 1.09 1.02 96 1012.7
20260505074031 10 356 3.2 11.3 0.00 1.09 1.02 96 1012.6
20260505073531 10 350 4.8 12.9 0.00 1.09 1.02 97 1012.5
20260505073031 10 9 1.6 3.2 0.00 1.09 1.02 97 1012.6
20260505072531 10 1 1.6 9.7 0.00 1.09 1.02 97 1012.6
20260505072031 10 4 3.2 8.0 0.00 1.09 1.02 97 1012.6
20260505071535 10 343 4.8 8.0 0.00 1.09 1.02 97 1012.6
20260505071043 10 350 3.2 6.4 0.00 1.09 1.02 97 1012.6
20260505070530 10 2 3.2 8.0 0.00 1.09 1.02 98 1012.7